Change the Weather History Date:

Wednesday, June 18, 2014

  Actual Average (KMAI) Record (KMAI)
Temperature  
Mean Temperature 86 °F 81 °F  
Max Temperature 98 °F 91 °F 102 °F (1998)
Min Temperature 73 °F 70 °F 66 °F (2007)
Degree Days  
Heating Degree Days 0    
Month to date heating degree days  
Since 1 June heating degree days  
Since 1 July heating degree days  
Cooling Degree Days 20    
Month to date cooling degree days  
Year to date cooling degree days  
Since 1 June cooling degree days  
Growing Degree Days 36 (Base 50)    
Moisture  
Dew Point 72 °F    
Average Humidity 67    
Maximum Humidity 100    
Minimum Humidity 35    
Precipitation  
Precipitation 0.00 in 0.20 in 0.49 in (2000)
Month to date precipitation 3.25  
Year to date precipitation 25.47  
Sea Level Pressure  
Sea Level Pressure 30.11 in    
Wind  
Wind Speed 3 mph (SE)    
Max Wind Speed 9 mph    
Max Gust Speed -    
Visibility 10 miles    
Events      
T = Trace of Precipitation, MM = Missing Value Source: NWS Daily Summary

Daily Weather History Graph

Daily Weather History Graph

Search for Another Location

Airport or City:

Trip Planner

Search our weather history database for the weather conditions in past years. The results will help you decide how hot, cold, wet, or windy it might be!

Date:

Astronomy

Jun. 18, 2014 Rise Set
Actual Time 6:35 AM EDT 8:44 PM EDT
Civil Twilight 6:07 AM EDT 9:12 PM EDT
Nautical Twilight 5:33 AM EDT 9:46 PM EDT
Astronomical Twilight 4:56 AM EDT 10:22 PM EDT
Moon 12:32 AM EDT (6/18) 12:35 PM EDT (6/18)
Length of Visible Light 15h 05m
Length of Day
14h 09m
Waning Gibbous, 63% of the Moon is Illuminated
Jun 18
Waning Gibbous
Jun 19
Last Quarter
Jun 27
New
Jul 5
First Quarter
Jul 12
Full

Hourly Weather History & Observations

Time (EDT) Temp. Heat Index Dew Point Humidity Pressure Visibility Wind Dir Wind Speed Gust Speed Precip Events Conditions
12:15 AM 80.6 °F 85.4 °F 73.4 °F 79% 30.14 in 10.0 mi WSW 3.5 mph - N/A   Clear
12:35 AM 78.8 °F - 73.4 °F 83% 30.14 in 10.0 mi West 3.5 mph - N/A   Clear
1:15 AM 78.8 °F - 73.4 °F 83% 30.14 in 10.0 mi Calm Calm - N/A   Clear
1:35 AM 78.8 °F - 73.4 °F 83% 30.13 in 10.0 mi Calm Calm - N/A   Clear
2:15 AM 78.8 °F - 75.2 °F 89% 30.11 in 10.0 mi East 5.8 mph - N/A   Clear
2:35 AM 78.8 °F - 75.2 °F 89% 30.11 in 10.0 mi East 4.6 mph - N/A   Clear
2:55 AM 77.0 °F - 73.4 °F 89% 30.10 in 10.0 mi ENE 3.5 mph - N/A   Clear
3:15 AM 77.0 °F - 73.4 °F 89% 30.10 in 10.0 mi SE 3.5 mph - N/A   Clear
3:35 AM 77.0 °F - 73.4 °F 89% 30.09 in 7.0 mi Calm Calm - N/A   Clear
3:55 AM 77.0 °F - 73.4 °F 89% 30.09 in 10.0 mi Calm Calm - N/A   Clear
4:15 AM 77.0 °F - 73.4 °F 89% 30.10 in 10.0 mi Calm Calm - N/A   Clear
4:35 AM 77.0 °F - 73.4 °F 89% 30.10 in 10.0 mi Calm Calm - N/A   Clear
4:55 AM 77.0 °F - 73.4 °F 89% 30.10 in 10.0 mi Calm Calm - N/A   Clear
5:15 AM 75.2 °F - 73.4 °F 94% 30.10 in 7.0 mi Calm Calm - N/A   Clear
5:35 AM 75.2 °F - 73.4 °F 94% 30.10 in 7.0 mi Calm Calm - N/A   Clear
5:55 AM 73.4 °F - 71.6 °F 94% 30.11 in 7.0 mi Calm Calm - N/A   Clear
6:15 AM 73.4 °F - 71.6 °F 94% 30.11 in 7.0 mi Calm Calm - N/A   Clear
6:35 AM 73.4 °F - 71.6 °F 94% 30.11 in 5.0 mi Calm Calm - N/A   Clear
6:55 AM 73.4 °F - 73.4 °F 100% 30.12 in 5.0 mi Calm Calm - N/A   Clear
7:15 AM 75.2 °F - 73.4 °F 94% 30.12 in 5.0 mi Calm Calm - N/A   Clear
7:35 AM 77.0 °F - 73.4 °F 89% 30.12 in 7.0 mi Calm Calm - N/A   Clear
7:55 AM 78.8 °F - 75.2 °F 89% 30.13 in 7.0 mi Calm Calm - N/A   Clear
8:15 AM 80.6 °F 86.2 °F 75.2 °F 84% 30.14 in 10.0 mi Calm Calm - N/A   Clear
8:35 AM 80.6 °F 86.2 °F 75.2 °F 84% 30.14 in 10.0 mi Calm Calm - N/A   Clear
8:55 AM 84.2 °F 94.1 °F 77.0 °F 79% 30.15 in 10.0 mi ESE 3.5 mph - N/A   Clear
9:15 AM 84.2 °F 92.3 °F 75.2 °F 74% 30.15 in 10.0 mi SE 3.5 mph - N/A   Clear
9:35 AM 86.0 °F 95.1 °F 75.2 °F 70% 30.15 in 10.0 mi SSE 4.6 mph - N/A   Clear
10:15 AM 87.8 °F 95.6 °F 73.4 °F 62% 30.15 in 10.0 mi ESE 3.5 mph - N/A   Clear
10:35 AM 87.8 °F 95.6 °F 73.4 °F 62% 30.15 in 10.0 mi Calm Calm - N/A   Scattered Clouds
10:55 AM 87.8 °F 95.6 °F 73.4 °F 62% 30.15 in 10.0 mi Calm Calm - N/A   Scattered Clouds
11:15 AM 87.8 °F 93.8 °F 71.6 °F 58% 30.14 in 10.0 mi Calm Calm - N/A   Scattered Clouds
11:35 AM 87.8 °F 93.8 °F 71.6 °F 58% 30.14 in 10.0 mi NNW 3.5 mph - N/A   Mostly Cloudy
11:55 AM 87.8 °F 93.8 °F 71.6 °F 58% 30.15 in 10.0 mi WNW 4.6 mph - N/A   Mostly Cloudy
12:15 PM 91.4 °F 100.1 °F 73.4 °F 55% 30.14 in 10.0 mi NNW 3.5 mph - N/A   Scattered Clouds
12:35 PM 91.4 °F 100.1 °F 73.4 °F 55% 30.14 in 10.0 mi Calm Calm - N/A   Scattered Clouds
12:55 PM 95.0 °F 101.3 °F 69.8 °F 44% 30.14 in 10.0 mi East 8.1 mph - N/A   Clear
1:15 PM 95.0 °F 101.3 °F 69.8 °F 44% 30.14 in 10.0 mi NE 6.9 mph - N/A   Clear
1:35 PM 95.0 °F 99.5 °F 68.0 °F 41% 30.13 in 10.0 mi East 4.6 mph - N/A   Clear
2:15 PM 96.8 °F 103.1 °F 69.8 °F 41% 30.11 in 10.0 mi East 5.8 mph - N/A   Clear
2:35 PM 96.8 °F 100.7 °F 66.2 °F 37% 30.10 in 10.0 mi East 5.8 mph - N/A   Clear
2:55 PM 98.6 °F 104.1 °F 68.0 °F 37% 30.10 in 10.0 mi Calm Calm - N/A   Clear
3:35 PM 98.6 °F 104.1 °F 68.0 °F 37% 30.08 in 10.0 mi Calm Calm - N/A   Clear
3:55 PM 98.6 °F 104.1 °F 68.0 °F 37% 30.08 in 10.0 mi ENE 5.8 mph - N/A   Clear
4:35 PM 98.6 °F 102.8 °F 66.2 °F 35% 30.07 in 10.0 mi Calm Calm - N/A   Clear
4:55 PM 98.6 °F 104.1 °F 68.0 °F 37% 30.07 in 10.0 mi NNE 8.1 mph - N/A   Clear
5:15 PM 98.6 °F 104.1 °F 68.0 °F 37% 30.06 in 10.0 mi Calm Calm - N/A   Clear
5:35 PM 98.6 °F 104.1 °F 68.0 °F 37% 30.06 in 10.0 mi ENE 6.9 mph - N/A   Clear
5:55 PM 96.8 °F 100.7 °F 66.2 °F 37% 30.06 in 10.0 mi NE 4.6 mph - N/A   Clear
6:15 PM 96.8 °F 101.8 °F 68.0 °F 39% 30.06 in 10.0 mi ENE 9.2 mph - N/A   Clear
6:35 PM 96.8 °F 101.8 °F 68.0 °F 39% 30.05 in 10.0 mi ESE 8.1 mph - N/A   Clear
6:55 PM 95.0 °F 99.5 °F 68.0 °F 41% 30.05 in 10.0 mi East 5.8 mph - N/A   Clear
7:15 PM 95.0 °F 99.5 °F 68.0 °F 41% 30.05 in 10.0 mi East 4.6 mph - N/A   Clear
7:35 PM 95.0 °F 99.5 °F 68.0 °F 41% 30.05 in 10.0 mi East 4.6 mph - N/A   Clear
7:55 PM 93.2 °F 100.5 °F 71.6 °F 49% 30.06 in 10.0 mi SSW 5.8 mph - N/A   Clear
8:15 PM 87.8 °F 93.8 °F 71.6 °F 58% 30.07 in 10.0 mi SSW 8.1 mph - N/A   Clear
8:35 PM 87.8 °F 93.8 °F 71.6 °F 58% 30.08 in 10.0 mi SSW 4.6 mph - N/A   Clear
8:55 PM 86.0 °F 91.8 °F 71.6 °F 62% 30.08 in 10.0 mi SSW 3.5 mph - N/A   Clear
9:15 PM 84.2 °F 89.6 °F 71.6 °F 66% 30.10 in 10.0 mi SW 4.6 mph - N/A   Clear
9:35 PM 84.2 °F 89.6 °F 71.6 °F 66% 30.10 in 10.0 mi SSW 5.8 mph - N/A   Clear
9:55 PM 84.2 °F 89.6 °F 71.6 °F 66% 30.10 in 10.0 mi SSW 5.8 mph - N/A   Clear
10:15 PM 84.2 °F 89.6 °F 71.6 °F 66% 30.11 in 10.0 mi SSW 4.6 mph - N/A   Clear
10:35 PM 82.4 °F 87.2 °F 71.6 °F 70% 30.11 in 10.0 mi SSW 4.6 mph - N/A   Clear
10:55 PM 80.6 °F 84.6 °F 71.6 °F 74% 30.12 in 10.0 mi West 3.5 mph - N/A   Clear
11:15 PM 80.6 °F 84.6 °F 71.6 °F 74% 30.11 in 10.0 mi WSW 3.5 mph - N/A   Clear
11:35 PM 80.6 °F 84.6 °F 71.6 °F 74% 30.12 in 10.0 mi Calm Calm - N/A   Clear
11:55 PM 80.6 °F 84.6 °F 71.6 °F 74% 30.12 in 10.0 mi SSW 3.5 mph - N/A   Clear